Regional Weather Roundup
Issued by NWS Little Rock, AR

Home | Current Version | Previous Version | Graphics & Text | Print | Product List | Glossary On
Versions: 1 2 3 4 5 6 7 8 9 10 11 12 13 14 15 16 17 18 19 20 21 22 23 24 25 26 27 28 29 30 31 32 33 34 35 36 37 38 39 40 41 42 43 44 45 46 47 48 49 50
000
ASUS44 KLZK 011705
RWRLZK

WEATHER ROUNDUP FOR ARKANSAS
NATIONAL WEATHER SERVICE LITTLE ROCK AR
1100 AM CST SUN MAR 01 2015

NOTE: "FAIR" INDICATES FEW OR NO CLOUDS BELOW 12,000 FEET WITH NO
SIGNIFICANT WEATHER AND/OR OBSTRUCTIONS TO VISIBILITY.

ARZ001-003-010-029-011800-
NORTHWEST ARKANSAS

CITY           SKY/WX    TMP DP  RH WIND       PRES   REMARKS
FAYETTEVILLE   CLOUDY    32  31  96 N3        30.37R FOG
FORT SMITH     FOG       34  32  92 CALM      30.40R VSB 1
HARRISON       CLOUDY    31  31 100 W5        30.35F FOG     WCI  26
BENTONVILLE    CLOUDY    30  27  86 CALM      30.37F
ROGERS         CLOUDY    31  29  92 N3        30.37S FOG
SILOAM SPGS    CLOUDY    30  25  80 CALM      30.38F
HIGHFILL       CLOUDY    31  29  92 N6        30.36F FOG     WCI  25
SPRINGDALE     CLOUDY    32  30  93 NW6       30.38S FOG     WCI  26
$$

ARZ004-005-016-011800-
NORTH CENTRAL ARKANSAS

CITY           SKY/WX    TMP DP  RH WIND       PRES   REMARKS
BATESVILLE     CLOUDY    34  34 100 NW6       30.39S WCI  29
FLIPPIN        CLOUDY    34  28  80 CALM      30.38S
MTN HOME       CLOUDY    32  32 100 CALM      30.36S FOG
$$

ARZ040-041-011800-
WEST CENTRAL ARKANSAS

CITY           SKY/WX    TMP DP  RH WIND       PRES   REMARKS
MENA           CLOUDY    36  36 100 CALM      30.35S
MOUNT IDA      CLOUDY    37  34  89 N3        30.33S FOG
$$

ARZ009-017-025-026-028-011800-
NORTHEAST ARKANSAS

CITY           SKY/WX    TMP DP  RH WIND       PRES   REMARKS
CORNING        PTSUNNY   36  32  87 NW6       30.40R
JONESBORO      CLOUDY    37  33  85 CALM      30.37S
NEWPORT        CLOUDY    34  32  92 N6        30.40S WCI  29
WALNUT RIDGE   CLOUDY    34  30  86 N8        30.39S WCI  27
BLYTHEVILLE    CLOUDY    37  36  96 S5        30.37S FOG
$$

ARZ022-023-033-042-044-011800-
CENTRAL ARKANSAS

CITY           SKY/WX    TMP DP  RH WIND       PRES   REMARKS
LITTLE ROCK    LGT RAIN  36  33  89 CALM      30.39R FOG
N LITTLE ROCK  CLOUDY    36  36 100 E3        30.39R
JACKSONVILLE   LGT RAIN  36  34  93 E3        30.37S FOG
SEARCY         LGT RAIN  37  34  87 VRB3      30.40R FOG
HOT SPRINGS    CLOUDY    37  35  92 CALM      30.36F FOG
RUSSELLVILLE   CLOUDY    39  33  79 CALM      30.37F
CLINTON        CLOUDY    37  36  93 CALM      30.40R FOG
$$

ARZ036-011800-
EAST ARKANSAS

CITY           SKY/WX    TMP DP  RH WIND       PRES   REMARKS
WEST MEMPHIS   CLOUDY    38  38 100 SE6       30.37S FOG
$$

ARZ050-053-066-070-073-011800-
SOUTHWEST ARKANSAS

CITY           SKY/WX    TMP DP  RH WIND       PRES   REMARKS
ARKADELPHIA    MIX PCPN  37  36  96 N5        30.39S FOG
CAMDEN         CLOUDY    36  32  87 MISG      30.39S FOG
TEXARKANA      CLOUDY    37  36  96 E7        30.36S FOG
EL DORADO      CLOUDY    36  34  92 VRB6      30.37S FOG
DE QUEEN       CLOUDY    41  39  93 E3        30.35S FOG
$$

ARZ056-057-069-011800-
SOUTHEAST ARKANSAS

CITY           SKY/WX    TMP DP  RH WIND       PRES   REMARKS
PINE BLUFF     RAIN      33  32  96 NE3       30.38R FOG
STUTTGART      CLOUDY    36  32  87 N5        30.39S
MONTICELLO     LGT RAIN  36  34  92 CALM      30.37R FOG

$$





USA.gov is the U.S. government's official web portal to all federal, state and local government web resources and services.